This demonstration page uses our WeatherBlox Daily Observations layout. Learn more.

Left ArrowRight Arrow

Hourly Observations for May 23, 2021

Temp ( °F °C ) Dew Point ( °F °C ) Humidity (%) Winds ( mph kmh ) Pressure ( in mb ) Visibility ( mi km ) Precip ( " mm )
12:53 am 00:53 Clear 72 22.2 63 17.2 73 73 E 18 30 29.93 1014 10 16 0.00 0.00
1:53 am 01:53 Clear 71 21.7 63 17.2 76 76 E 15 24 29.95 1014 10 16 0.00 0.00
2:53 am 02:53 Mostly Clear 70 21.1 63 17.2 79 79 ENE 7 11 29.96 1014 10 16 0.00 0.00
3:53 am 03:53 Mostly Cloudy 69 20.6 64 17.8 84 84 VRB 7 11 29.89 1012 10 16 0.00 0.00
4:53 am 04:53 Clear 69 20.6 64 17.8 84 84 SE 13 20 29.87 1012 10 16 0.00 0.00
5:53 am 05:53 Mostly Clear 69 20.6 64 17.8 84 84 SE 12 19 29.88 1012 10 16 0.00 0.00
6:53 am 06:53 Mostly Sunny 68 20 64 17.8 87 87 ESE 12 19 29.89 1012 10 16 0.00 0.00
7:53 am 07:53 Sunny 71 21.7 63 17.2 76 76 SE 18 30 29.90 1012 10 16 0.00 0.00
8:53 am 08:53 Mostly Sunny 73 22.8 63 17.2 71 71 SSE 21 33 29.91 1013 10 16 0.00 0.00
9:48 am 09:48 Mostly Cloudy 75 24 63 17 65 65 SSE 23 37 29.90 1013 10 16 0.00 0.00
9:53 am 09:53 Mostly Cloudy 75 23.9 63 17.2 66 66 SSE 23 37 29.92 1013 10 16 0.00 0.00
10:18 am 10:18 Partly Cloudy 78 25.6 62 16.7 58 58 SSE 23 37 29.87 1012 10 16 0.00 0.00
10:53 am 10:53 Partly Cloudy 79 26.1 62 16.7 56 56 SE 20 31 29.90 1013 10 16 0.00 0.00
11:53 am 11:53 Partly Cloudy 83 28.3 61 16.1 48 48 SSE 18 30 29.90 1013 10 16 0.00 0.00
12:53 pm 12:53 Sunny 85 29.4 61 16.1 45 45 SSE 18 30 29.88 1012 10 16 0.00 0.00
1:53 pm 13:53 Sunny 87 30.6 61 16.1 42 42 SE 15 24 29.85 1011 10 16 0.00 0.00
2:53 pm 14:53 Sunny 88 31.1 60 15.6 39 39 ESE 12 19 29.83 1010 10 16 0.00 0.00
3:53 pm 15:53 Sunny 91 32.8 60 15.6 35 35 ESE 20 31 29.79 1009 10 16 0.00 0.00
4:53 pm 16:53 Sunny 88 31.1 59 15 38 38 SE 17 28 29.78 1009 10 16 0.00 0.00
5:53 pm 17:53 Sunny 85 29.4 59 15 42 42 SE 20 31 29.78 1008 10 16 0.00 0.00
6:53 pm 18:53 Sunny 84 28.9 59 15 43 43 SE 23 37 29.78 1009 10 16 0.00 0.00
7:53 pm 19:53 Sunny 83 28.3 59 15 44 44 ESE 20 31 29.77 1008 10 16 0.00 0.00
8:53 pm 20:53 Clear 82 27.8 59 15 46 46 ESE 28 44 29.77 1008 10 16 0.00 0.00
9:53 pm 21:53 Clear 80 26.7 59 15 49 49 ESE 23 37 29.80 1009 10 16 0.00 0.00
10:53 pm 22:53 Clear 79 26.1 59 15 50 50 SE 24 39 29.81 1009 10 16 0.00 0.00
11:53 pm 23:53 Clear 78 25.6 59 15 52 52 SE 25 41 29.83 1010 10 16 0.00 0.00

Powered by AerisWeather